Regional Weather Roundup
Issued by NWS

Home | Current Version | Previous Version | Text Only | Print | Product List | Glossary On
Versions: 1 2 3 4 5 6 7 8 9 10 11 12 13 14 15 16 17 18 19 20 21 22 23 24 25 26 27 28 29 30 31 32 33 34 35 36 37 38 39 40 41 42 43 44 45 46 47 48 49 50
452
ASUS44 KFWD 050415
RWRTX
NORTH TEXAS HOURLY WEATHER ROUNDUP
NATIONAL WEATHER SERVICE FORT WORTH TX
1100 PM CDT WED MAY 04 2016

NOTE: "FAIR" INDICATES FEW OR NO CLOUDS BELOW 12,000 FEET WITH NO
SIGNIFICANT WEATHER AND/OR OBSTRUCTIONS TO VISIBILITY.

TXZ118-119-050500-
DALLAS/FORT WORTH METROPLEX

CITY           SKY/WX    TMP DP  RH WIND       PRES   REMARKS
DFW AIRPORT    CLEAR     73  51  46 W9        29.98R
DALLAS LOVE    CLEAR     72  54  53 CALM      29.98R
FTW MEACHAM    CLEAR     67  54  63 W5        29.99R
DAL-EXECUTIVE  CLEAR     67  51  56 W7        29.98R
FTW-ALLIANCE   CLEAR     63  53  70 W3        29.99R
FTW-NAS-JRB    CLEAR     67  53  61 NW5       30.00R
FTW-SPINKS     CLEAR     59  56  87 CALM      30.02S
ARLINGTON        N/A     71  52  50 W7        29.99
GRAND PRAIRIE  CLEAR     73  50  45 W3        30.01R
ADDISON        CLEAR     72  54  54 CALM      30.00R
MESQUITE       CLEAR     68  52  56 W5        29.98R
LANCASTER      CLEAR     64  52  63 W3        29.99R
$$

TXZ091>094-102>105-117-120-121-131>134-050500-
NORTH CENTRAL TEXAS

CITY           SKY/WX    TMP DP  RH WIND       PRES   REMARKS
SHRMAN/DENISON CLEAR     58  49  72 NE5       30.01R
GAINESVILLE    CLEAR     63  52  68 N6        30.03R
BOWIE          PTCLDY    65  51  58 NW6       30.02S
BRIDGEPORT     CLEAR     64  53  68 SW3       30.03R
DECATUR        CLEAR     69  48  47 W3        30.02R
DENTON         CLEAR     63  55  75 NW5       30.00R
MCKINNEY       CLEAR     67  54  63 N6        29.99R
GREENVILLE     CLEAR     68  54  60 NW3       29.98R
ROCKWALL       CLEAR     70  53  53 W10       29.97R
TERRELL        CLEAR     64  54  69 W7        29.98R
WAXAHACHIE     CLEAR     65  55  69 W5        30.01R
CLEBURNE       CLEAR     63  57  82 CALM      30.03S
GRANBURY       CLEAR     64  54  69 CALM      30.03S
$$

TXZ083>090-098>101-113>116-127>130-139>142-154-155-050500-
WESTERN NORTH TEXAS

CITY           SKY/WX    TMP DP  RH WIND       PRES   REMARKS
WICHITA FALLS  CLEAR     63  52  67 NE6       30.02R
WF-KICKAPOO    CLEAR     69  51  53 N5        30.04R
ABILENE        NOT AVBL
ABILENE-DYESS  CLEAR     60  52  76 SW6       30.06R
BRECKENRIDGE   CLEAR     65  55  70 S5        30.04S
GRAHAM         CLEAR     58  55  89 CALM      30.02R
MINERAL WELLS  CLEAR     64  52  64 CALM      30.01R
STEPHENVILLE   CLEAR     62  52  69 CALM      30.07R
COMANCHE       CLEAR     68  47  45 CALM      30.06S
BROWNWOOD      CLEAR     57  55  94 CALM      30.07R
COLEMAN        CLEAR     59  50  73 W5        30.08R
$$

TXZ143>147-156>162-174-175-050500-
CENTRAL TEXAS

CITY           SKY/WX    TMP DP  RH WIND       PRES   REMARKS
WACO           CLEAR     60  54  80 NW5       30.01R
WACO-TSTC      CLEAR     63  55  77 CALM      30.01R
WACO-MCGREGOR  CLEAR     64  53  67 NW6       30.02R
HILLSBORO      CLEAR     60  53  77 CALM      30.01S
CORSICANA      CLEAR     65  53  65 W8        30.00R
MEXIA          CLEAR     66  51  58 W5        29.99S
HEARNE         CLEAR     62  57  84 CALM      30.00S
TEMPLE         CLEAR     61  56  83 N3        30.03R
KILLEEN        CLEAR     69  47  46 VRB3      30.03R
KILLEEN-SKYLRK CLEAR     66  51  58 NW7       30.03R
FORT HOOD      CLEAR     69  49  48 W3        30.01R
GATESVILLE     CLEAR     63  54  72 MISG      30.06R
HAMILTON       CLEAR     65  50  58 NW6       30.06R
LAMPASAS       CLEAR     68  52  56 NW7       30.04S
$$

TXZ095>097-106>112-122>126-135>138-148>153-164>167-050500-
EAST TEXAS

CITY           SKY/WX    TMP DP  RH WIND       PRES   REMARKS
PARIS          CLEAR     64  46  52 N7        29.97S
SULPHUR SPRNGS CLEAR     66  57  72 NW5       29.99R
MOUNT PLEASANT CLEAR     66  54  65 NW5       29.97R
GILMER         CLEAR     68  54  60 W3        29.95R
MINEOLA        CLEAR     68  55  64 SW3       29.97R
TYLER          CLEAR     69  51  52 W6        29.96R
LONGVIEW       CLEAR     66  52  60 W5        29.93S
MARSHALL       CLEAR     60  56  85 CALM      29.95S
PALESTINE      CLEAR     59  57  92 CALM      29.99R
JACKSONVILLE   CLEAR     69  51  53 W3        29.99R
HENDERSON      CLEAR     60  55  83 CALM      29.96S
NACOGDOCHES    CLEAR     59  55  88 CALM      29.95S
LUFKIN         CLEAR     64  54  69 W5        29.96R
$$

SUPPLEMENTAL OBSERVATIONS (CENTRAL)

CITY           SKY/WX    TMP DP  RH WIND       PRES   REMARKS
LAKE TEXOMA      N/A     72  48  43 N7          N/A
CADDO GRASSLND   N/A     59  54  82 CALM        N/A
PAT MAYSE LAKE   N/A     64  48  55 CALM        N/A
MCGREGOR         N/A     64  50  59 NW1         N/A
TEMPLE           N/A     70  50  49 NW2         N/A
$$

SUPPLEMENTAL OBSERVATIONS (WEST)

CITY           SKY/WX    TMP DP  RH WIND       PRES   REMARKS
MILLERS CREEK    N/A     63  54  72 SW3         N/A
POSSUM KINGDOM   N/A     66  50  55 SW5         N/A
LBJ GRASSLAND    N/A     66  52  59 N2          N/A
GRANBURY         N/A     63  54  72 NW1         N/A
HAMBY            N/A     57  48  72 SE3         N/A
$$

SUPPLEMENTAL OBSERVATIONS (EAST)

CITY           SKY/WX    TMP DP  RH WIND       PRES   REMARKS
CLARKSVILLE      N/A     64  46  52 N3          N/A
CADDO LAKE       N/A     57  54  88 CALM        N/A
GILMER           N/A     70  54  56 NW5         N/A
HENDERSON        N/A     59  55  88 CALM        N/A
LUFKIN           N/A     59  55  88 MISG        N/A
N SABINE NF      N/A     61  55  82 MISG        N/A
S SABINE NF      N/A     61  55  82 S1          N/A
$$

SUPPLEMENTAL OBSERVATIONS ARE A COLLECTION OF AUTOMATED INSTRUMENTS
THAT ARE MAINTAINED BY A VARIETY OF FEDERAL AND STATE AGENCIES.
CERTAIN ELEMENTS...SUCH AS HUMIDITY VALUES AND SUSTAINED WIND
SPEEDS...MAY BE APPROXIMATED.





USA.gov is the U.S. government's official web portal to all federal, state and local government web resources and services.